Regional Weather Roundup
Issued by NWS Cleveland, OH

Home | Current Version | Previous Version | Text Only | Print | Product List | Glossary Off
Versions: 1 2 3 4 5 6 7 8 9 10 11 12 13 14 15 16 17 18 19 20 21 22 23 24 25 26 27 28 29 30 31 32 33 34 35 36 37 38 39 40 41 42 43 44 45 46 47 48 49 50

000
ASUS41 KCLE 290112
RWRCLE
OHIO REGIONAL WEATHER ROUNDUP
NATIONAL WEATHER SERVICE WILMINGTON, OH
900 PM EDT THU APR 28 2016

NOTE: "FAIR" INDICATES FEW OR NO CLOUDS BELOW 12,000 FEET WITH NO
SIGNIFICANT WEATHER AND/OR OBSTRUCTIONS TO VISIBILITY.

OHZ001>008-015>018-024>027-034-035-043-044-290200-
   NORTHWEST OHIO

CITY           SKY/WX    TMP DP  RH WIND       PRES   REMARKS
DEFIANCE       CLOUDY    49  37  63 NE10      29.97R
FINDLAY        LGT RAIN  47  40  76 NE14      29.93F
TOLEDO EXPRESS CLOUDY    47  33  58 E16G23    29.97R
TOLEDO EXEC    CLOUDY    47  36  65 NE13      29.98R
LIMA           LGT RAIN  48  45  89 N5        29.95R
$$

OHZ009>014-019>023-028>033-038-089-290200-
   NORTHEAST OHIO

CITY           SKY/WX    TMP DP  RH WIND       PRES   REMARKS
CLE-HOPKINS    CLOUDY    48  45  89 NE7       29.98R
CLE-LAKEFRONT  CLOUDY    48  45  89 NE9       29.95R
CUY CO. ARPT   CLOUDY    43  41  93 NE9       29.97R
LORAIN-ELYRIA  CLOUDY    46  41  82 NE6       29.96R
ASHTABULA      FAIR      44  42  93 NE6       29.96F
AKRON-CANTON   CLOUDY    47  44  90 NE7       29.95R
WOOSTER        CLOUDY    49  46  90 E9        29.93F
MANSFIELD      CLOUDY    50  47  89 NE5       29.94R
YOUNGSTOWN     CLOUDY    46  42  86 E7        29.95R
$$

OHZ042-051>053-060>062-070>072-077>081-290200-
  SOUTHWEST OHIO

CITY           SKY/WX    TMP DP  RH WIND       PRES   REMARKS
CINC-COVINGTON FAIR      65  50  58 W8        29.90R
CINC-LUNKEN    FAIR      69  51  52 W7        29.89R
HAMILTON       MOCLDY    65  59  81 N8        29.91R
DAYTON         CLOUDY    54  52  93 N9        29.93R FOG
WRIGHT-PAT AFB MOCLDY    59  57  94 NW13      29.92R
DAYTON GENERAL CLOUDY    63  56  78 N9        29.90R
WILMINGTON     FAIR      59  58  96 NE7       29.89R FOG
$$

OHZ036-037-039>041-045>050-054>059-063>069-073>076-082>088-290200-
  CENTRAL AND SOUTHEAST OHIO

CITY           SKY/WX    TMP DP  RH WIND       PRES   REMARKS
COLUMBUS       LGT RAIN  58  54  86 NE8       29.89R
OSU AIRPORT    CLOUDY    56  53  90 N8        29.90R
BOLTON FIELD   MOCLDY    58  56  90 N8        29.89S
RICKENBACK AFB CLOUDY    58  56  91 NE9       29.87S FOG
NEWARK         LGT RAIN  57  51  80 N9        29.89S
MARION         CLOUDY    52  48  86 N10       29.93S
LANCASTER      MOCLDY    58  54  86 NE7       29.90R
ZANESVILLE     CLOUDY    59  51  75 N7        29.91R
NEW PHILLY     CLOUDY    50  46  86 NE6       29.94R
$$



USA.gov is the U.S. government's official web portal to all federal, state and local government web resources and services.